Location: Almena City Lake
(39.8850°N, 99.6804°W)
Time: 19:11:44
(UTC+00:00)

H-2A R/B - Pass Details

Date: 18 February 2020
Orbit: 733 x 837 km, 98.2° (Epoch: 30 March)

Event Time Altitude Azimuth Distance (km) Brightness Sun altitude
Exits shadow 02:59:44 28° 214° (SW) 1,474 3.6 -31.8°
Maximum altitude 03:01:54 41° 262° (W) 1,168 3.2 -32.2°
Drops below altitude 10° 03:06:59 10° 332° (NNW) 2,435 5.0 -33.2°
Sets 03:09:31 0° 340° (NNW) 3,382 5.7 -33.6°
